This is the latest recevied weather packets stored in our database for station/object IW2MUC-12. If no packets are shown the sender has not sent any weather packets the latest 10 day(s).
| Time | Temp. | Humidity | Pressure | Rain* | Wind** | Luminosity | Snow |
|---|---|---|---|---|---|---|---|
| 1787391036 | 27.22° C | 79% | 988 hPa | - | - | - | - |
| 1787390432 | 26.67° C | 80% | 988 hPa | - | - | - | - |
| 1787389828 | 26.11° C | 80% | 988 hPa | - | - | - | - |
| 1787389224 | 25° C | 81% | 988 hPa | - | - | - | - |
| 1787388620 | 24.44° C | 81% | 988 hPa | - | - | - | - |
| 1787388016 | 23.89° C | 81% | 988 hPa | - | - | - | - |
| 1787387412 | 23.33° C | 81% | 988 hPa | - | - | - | - |
| 1787386808 | 22.78° C | 81% | 988 hPa | - | - | - | - |
| 1787386204 | 22.22° C | 81% | 988 hPa | - | - | - | - |
| 1787385600 | 21.11° C | 81% | 988 hPa | - | - | - | - |
| 1787384996 | 20.56° C | 80% | 988 hPa | - | - | - | - |
| 1787384392 | 20° C | 80% | 988 hPa | - | - | - | - |
| 1787383788 | 19.44° C | 79% | 988 hPa | - | - | - | - |
| 1787383184 | 18.89° C | 77% | 988 hPa | - | - | - | - |
| 1787382580 | 18.33° C | 75% | 988 hPa | - | - | - | - |
| 1787381976 | 18.33° C | 72% | 988 hPa | - | - | - | - |
| 1787381372 | 17.78° C | 69% | 987 hPa | - | - | - | - |
| 1787380768 | 17.78° C | 69% | 987 hPa | - | - | - | - |
| 1787380164 | 17.22° C | 67% | 989 hPa | - | - | - | - |
| 1787379560 | 16.67° C | 65% | 987 hPa | - | - | - | - |
| 1787378956 | 16.67° C | 67% | 987 hPa | - | - | - | - |
| 1787378345 | 15.56° C | 64% | 988 hPa | - | - | - | - |
| 1787377741 | 15° C | 65% | 988 hPa | - | - | - | - |
| 1787377137 | 14.44° C | 66% | 988 hPa | - | - | - | - |
| 1787375929 | 13.33° C | 67% | 987 hPa | - | - | - | - |
* Rain since midnight (hover to see other rain measurements)
** Current wind speed in m/s (hover to see current wind gust speed)